| time (UTC) | temp C | wind direction | speed KPH | gust KPH | rain 1hr cm | rain 24hr cm | rain mn cm | humidity % | barometer mb |
| 20260507104523 | 7 | 260 | 0.0 | 1.6 | 0.00 | 0.00 | 0.00 | 97 | 1006.7 |
| 20260507103005 | 7 | 201 | 0.0 | 1.6 | 0.00 | 0.00 | 0.00 | 97 | 1006.7 |
| 20260507101504 | 7 | 354 | 0.0 | 1.6 | 0.00 | 0.00 | 0.00 | 97 | 1006.8 |
| 20260507100045 | 7 | 354 | 0.0 | 0.0 | 0.00 | 0.00 | 0.00 | 96 | 1006.4 |
| 20260507094547 | 7 | 354 | 0.0 | 0.0 | 0.00 | 0.00 | 0.00 | 96 | 1006.2 |
| 20260507093033 | 7 | 337 | 0.0 | 1.6 | 0.00 | 0.00 | 0.00 | 96 | 1006.1 |
| 20260507091529 | 7 | 314 | 0.0 | 1.6 | 0.00 | 0.00 | 0.00 | 96 | 1006.0 |
| 20260507090010 | 8 | 105 | 0.0 | 1.6 | 0.00 | 0.00 | 0.00 | 96 | 1006.1 |
| 20260507084504 | 8 | 226 | 0.0 | 1.6 | 0.00 | 0.00 | 0.00 | 96 | 1006.5 |
| 20260507083048 | 8 | 226 | 0.0 | 1.6 | 0.00 | 0.00 | 0.00 | 96 | 1006.6 |
| 20260507081543 | 8 | 187 | 0.0 | 0.0 | 0.00 | 0.00 | 0.00 | 95 | 1006.6 |
| 20260507080024 | 8 | 184 | 0.0 | 1.6 | 0.00 | 0.00 | 0.00 | 95 | 1006.5 |
| 20260507074522 | 8 | 132 | 0.0 | 0.0 | 0.00 | 0.00 | 0.00 | 94 | 1006.2 |
| 20260507073001 | 8 | 133 | 0.0 | 0.0 | 0.00 | 0.00 | 0.00 | 93 | 1006.3 |
| 20260507071601 | 9 | 218 | 0.0 | 3.2 | 0.00 | 0.00 | 0.00 | 92 | 1006.1 |
| 20260507070043 | 9 | 19 | 0.0 | 4.8 | 0.00 | 0.00 | 0.00 | 90 | 1006.0 |
| 20260507064539 | 9 | 26 | 0.0 | 4.8 | 0.00 | 0.00 | 0.00 | 90 | 1005.5 |
| 20260507063020 | 9 | 210 | 0.0 | 4.8 | 0.00 | 0.00 | 0.00 | 90 | 1005.5 |
| 20260507061519 | 10 | 332 | 0.0 | 6.4 | 0.00 | 0.00 | 0.00 | 90 | 1005.6 |
| 20260507060117 | 10 | 8 | 0.0 | 9.7 | 0.00 | 0.00 | 0.00 | 92 | 1005.8 |
| 20260507054604 | 10 | 4 | 0.0 | 1.6 | 0.00 | 0.00 | 0.00 | 95 | 1005.5 |
| 20260507053059 | 10 | 142 | 0.0 | 1.6 | 0.00 | 0.00 | 0.00 | 96 | 1005.9 |
| 20260507051537 | 11 | 204 | 0.0 | 3.2 | 0.00 | 0.00 | 0.00 | 96 | 1006.1 |
| 20260507050037 | 11 | 198 | 0.0 | 3.2 | 0.00 | 0.00 | 0.00 | 96 | 1006.0 |
| 20260507044533 | 11 | 203 | 0.0 | 1.6 | 0.00 | 0.00 | 0.00 | 96 | 1005.8 |
| 20260507043014 | 11 | 213 | 0.0 | 1.6 | 0.00 | 0.00 | 0.00 | 96 | 1005.9 |
| 20260507041554 | 12 | 100 | 0.0 | 3.2 | 0.00 | 0.00 | 0.00 | 96 | 1005.9 |
| 20260507040052 | 12 | 198 | 0.0 | 3.2 | 0.00 | 0.00 | 0.00 | 96 | 1005.8 |
| 20260507034538 | 13 | 211 | 0.0 | 4.8 | 0.00 | 0.00 | 0.00 | 97 | 1006.0 |
| 20260507033034 | 13 | 207 | 0.0 | 1.6 | 0.00 | 0.00 | 0.00 | 98 | 1005.8 |
| 20260507031516 | 13 | 214 | 0.0 | 3.2 | 0.00 | 0.00 | 0.00 | 98 | 1005.5 |
| 20260507030014 | 13 | 218 | 0.0 | 3.2 | 0.00 | 0.00 | 0.00 | 99 | 1005.4 |
| 20260507024503 | 14 | 198 | 0.0 | 4.8 | 0.00 | 0.00 | 0.00 | 99 | 1005.1 |
| 20260507023003 | 14 | 205 | 0.0 | 8.0 | 0.00 | 0.00 | 0.00 | 99 | 1005.1 |
| 20260507021501 | 14 | 160 | 0.0 | 6.4 | 0.00 | 0.00 | 0.00 | 99 | 1004.6 |
| 20260507020001 | 13 | 214 | 1.6 | 8.0 | 0.00 | 0.00 | 0.00 | 99 | 1005.0 |
| 20260507014603 | 13 | 198 | 0.0 | 4.8 | 0.00 | 0.00 | 0.00 | 99 | 1004.9 |
| 20260507013103 | 13 | 123 | 0.0 | 9.7 | 0.00 | 0.00 | 0.00 | 99 | 1005.0 |
| 20260507011600 | 13 | 208 | 0.0 | 4.8 | 0.00 | 0.00 | 0.00 | 98 | 1004.7 |
| 20260507010059 | 13 | 158 | 1.6 | 8.0 | 0.00 | 0.00 | 0.00 | 98 | 1005.0 |
| 20260507004559 | 13 | 198 | 0.0 | 8.0 | 0.00 | 0.00 | 0.00 | 98 | 1005.1 |
| 20260507003055 | 13 | 120 | 0.0 | 9.7 | 0.00 | 0.00 | 0.00 | 98 | 1005.0 |
| 20260507001541 | 13 | 203 | 0.0 | 8.0 | 0.00 | 0.00 | 0.00 | 98 | 1004.9 |
| 20260507000038 | 13 | 177 | 1.6 | 9.7 | 0.00 | 0.00 | 0.00 | 98 | 1004.8 |
| 20260506234521 | 13 | 216 | 0.0 | 8.0 | 0.00 | 0.00 | 0.00 | 98 | 1004.6 |
| 20260506233019 | 13 | 123 | 0.0 | 6.4 | 0.00 | 0.00 | 0.00 | 98 | 1004.6 |
| 20260506231502 | 13 | 210 | 0.0 | 8.0 | 0.00 | 0.00 | 0.00 | 98 | 1004.5 |
| 20260506230001 | 14 | 167 | 0.0 | 8.0 | 0.00 | 0.00 | 0.00 | 98 | 1004.4 |
| 20260506224557 | 14 | 180 | 1.6 | 12.9 | 0.00 | 0.00 | 0.00 | 97 | 1004.5 |
| 20260506223042 | 13 | 142 | 0.0 | 6.4 | 0.00 | 0.00 | 0.00 | 97 | 1004.6 |
| 20260506221525 | 13 | 87 | 0.0 | 6.4 | 0.00 | 0.00 | 0.00 | 97 | 1004.7 |
| 20260506220024 | 13 | 122 | 0.0 | 8.0 | 0.00 | 0.00 | 0.00 | 97 | 1004.6 |
| 20260506214506 | 14 | 166 | 0.0 | 8.0 | 0.00 | 0.00 | 0.00 | 97 | 1004.7 |
| 20260506213005 | 14 | 80 | 0.0 | 9.7 | 0.00 | 0.00 | 0.00 | 96 | 1004.7 |
| 20260506211546 | 14 | 189 | 1.6 | 11.3 | 0.00 | 0.00 | 0.00 | 96 | 1005.0 |
| 20260506210047 | 14 | 162 | 0.0 | 4.8 | 0.00 | 0.00 | 0.00 | 96 | 1005.0 |
| 20260506204526 | 14 | 210 | 1.6 | 14.5 | 0.00 | 0.00 | 0.00 | 95 | 1005.2 |
| 20260506203031 | 14 | 118 | 0.0 | 9.7 | 0.00 | 0.00 | 0.00 | 95 | 1005.2 |
| 20260506201507 | 14 | 217 | 1.6 | 8.0 | 0.00 | 0.00 | 0.00 | 95 | 1005.3 |
| 20260506200005 | 14 | 105 | 1.6 | 11.3 | 0.00 | 0.00 | 0.00 | 95 | 1005.4 |
| 20260506194559 | 14 | 201 | 1.6 | 16.1 | 0.00 | 0.00 | 0.00 | 94 | 1005.5 |
| 20260506193044 | 14 | 116 | 1.6 | 11.3 | 0.00 | 0.00 | 0.00 | 94 | 1005.7 |
| 20260506191534 | 15 | 224 | 0.0 | 11.3 | 0.00 | 0.00 | 0.00 | 94 | 1005.8 |
| 20260506190027 | 15 | 136 | 0.0 | 11.3 | 0.00 | 0.00 | 0.00 | 93 | 1005.8 |
| 20260506184508 | 15 | 137 | 0.0 | 14.5 | 0.00 | 0.00 | 0.00 | 91 | 1005.7 |
| 20260506183010 | 16 | 229 | 0.0 | 11.3 | 0.00 | 0.00 | 0.00 | 89 | 1006.0 |
| 20260506181548 | 16 | 238 | 0.0 | 8.0 | 0.00 | 0.00 | 0.00 | 86 | 1006.2 |
| 20260506180051 | 17 | 99 | 1.6 | 12.9 | 0.00 | 0.00 | 0.00 | 81 | 1006.4 |
| 20260506174532 | 18 | 162 | 1.6 | 9.7 | 0.00 | 0.00 | 0.00 | 76 | 1006.3 |
| 20260506173028 | 19 | 28 | 6.4 | 19.3 | 0.00 | 0.00 | 0.00 | 70 | 1006.4 |
| 20260506171513 | 20 | 131 | 1.6 | 17.7 | 0.00 | 0.00 | 0.00 | 66 | 1006.4 |
| 20260506170009 | 20 | 110 | 3.2 | 14.5 | 0.00 | 0.00 | 0.00 | 65 | 1006.3 |
| 20260506164558 | 20 | 158 | 3.2 | 17.7 | 0.00 | 0.00 | 0.00 | 64 | 1006.4 |
| 20260506163049 | 20 | 136 | 3.2 | 14.5 | 0.00 | 0.00 | 0.00 | 64 | 1006.5 |
| 20260506161530 | 20 | 217 | 0.0 | 16.1 | 0.00 | 0.00 | 0.00 | 64 | 1007.0 |
| 20260506160030 | 20 | 37 | 4.8 | 17.7 | 0.00 | 0.00 | 0.00 | 63 | 1007.0 |
| 20260506154508 | 20 | 193 | 0.0 | 17.7 | 0.00 | 0.00 | 0.00 | 65 | 1007.2 |
| 20260506153006 | 20 | 157 | 0.0 | 9.7 | 0.00 | 0.00 | 0.00 | 67 | 1007.3 |
| 20260506151548 | 20 | 212 | 3.2 | 22.5 | 0.00 | 0.00 | 0.00 | 67 | 1007.5 |
| 20260506150051 | 20 | 193 | 1.6 | 14.5 | 0.00 | 0.00 | 0.00 | 67 | 1007.7 |
| 20260506144524 | 20 | 207 | 3.2 | 17.7 | 0.00 | 0.00 | 0.00 | 70 | 1007.8 |
| 20260506143022 | 19 | 155 | 1.6 | 16.1 | 0.00 | 0.00 | 0.00 | 71 | 1007.9 |
| 20260506141502 | 18 | 131 | 1.6 | 11.3 | 0.00 | 0.00 | 0.00 | 75 | 1007.8 |
| 20260506140119 | 18 | 187 | 1.6 | 11.3 | 0.00 | 0.00 | 0.00 | 75 | 1007.7 |
| 20260506134541 | 18 | 113 | 0.0 | 8.0 | 0.00 | 0.00 | 0.00 | 78 | 1007.8 |
| 20260506133044 | 17 | 141 | 0.0 | 9.7 | 0.00 | 0.00 | 0.00 | 80 | 1007.9 |
| 20260506131517 | 16 | 125 | 3.2 | 14.5 | 0.00 | 0.00 | 0.00 | 82 | 1008.2 |
| 20260506130011 | 16 | 219 | 1.6 | 11.3 | 0.00 | 0.00 | 0.00 | 84 | 1008.5 |
| 20260506124555 | 16 | 158 | 3.2 | 12.9 | 0.00 | 0.00 | 0.00 | 85 | 1008.5 |
| 20260506123050 | 16 | 61 | 1.6 | 11.3 | 0.00 | 0.00 | 0.00 | 85 | 1008.4 |
| 20260506121530 | 15 | 113 | 1.6 | 8.0 | 0.00 | 0.00 | 0.00 | 88 | 1008.5 |
| 20260506120036 | 15 | 203 | 0.0 | 8.0 | 0.00 | 0.00 | 0.00 | 89 | 1008.5 |
| 20260506114508 | 14 | 207 | 0.0 | 8.0 | 0.00 | 0.00 | 0.00 | 90 | 1008.5 |
| 20260506113009 | 13 | 187 | 1.6 | 11.3 | 0.00 | 0.00 | 0.00 | 91 | 1008.8 |
| 20260506111551 | 13 | 197 | 0.0 | 6.4 | 0.00 | 0.00 | 0.00 | 91 | 1008.9 |
| 20260506110046 | 13 | 177 | 1.6 | 12.9 | 0.00 | 0.00 | 0.00 | 92 | 1008.8 |